Regional Weather Roundup
Issued by NWS Upton, NY

Current Version | Previous Version | Text Only | Print | Product List | Glossary Off
Versions: 1 2 3 4 5 6 7 8 9 10 11 12 13 14 15 16 17 18 19 20 21 22 23 24 25 26 27 28 29 30 31 32 33 34 35 36 37 38 39 40 41 42 43 44 45 46 47 48 49 50
000 ASUS41 KOKX 260909 RWROKX REGIONAL WEATHER ROUNDUP NATIONAL WEATHER SERVICE NEW YORK NY 500 AM EDT FRI MAY 26 2017 NOTE: "FAIR" INDICATES FEW OR NO CLOUDS BELOW 12,000 FEET WITH NO SIGNIFICANT WEATHER AND/OR OBSTRUCTIONS TO VISIBILITY. NYZ071-072-176-178-NJZ106-104-261000- NEW YORK CITY METRO AREA CITY SKY/WX TMP DP RH WIND PRES REMARKS Central Park LGT RAIN 56 56 100 CALM 29.53R FOG Wall St Helipt LGT RAIN 57 56 96 CALM 29.51S FOG Bronx Bot Gard N/A 55 54 94 W5 29.50S LaGuardia APRT LGT RAIN 57 55 93 NW7 29.50R Kennedy INTL LGT RAIN 57 57 100 NW8 29.51R FOG Breezy Point N/A 55 N/A N/A NW8 N/A Newark/Liberty CLOUDY 56 55 97 N6 29.51R Teterboro LGT RAIN 57 55 93 NW5 29.49R $$ NYZ177-179-078>081-261000- LONG ISLAND NEW YORK CITY SKY/WX TMP DP RH WIND PRES REMARKS Jones Beach N/A 55 N/A N/A NW7 N/A Matinecock PT N/A 73 N/A N/A NE8 N/A Farmingdale LGT RAIN 54 53 97 N7 29.49R MacArthur/ISP LGT RAIN 54 54 100 N9 29.47R Shirley LGT RAIN 54 54 100 N10 29.47R Mt Sinai Harb N/A 52 N/A N/A N13 N/A Westhampton LGT RAIN 55 53 93 N8 29.47R East Hampton RAIN 53 53 98 N6 29.45S Montauk N/A 56 56 100 VRB3 29.46S $$ NYZ052-065-067-261000- HUDSON VALLEY CITY SKY/WX TMP DP RH WIND PRES REMARKS White Plains LGT RAIN 54 52 93 N8 29.49R FOG Larchmont Harb N/A 55 N/A N/A W5 N/A Croton O-T Hud N/A 55 N/A N/A NW2 N/A Newburgh DRIZZLE 54 54 100 CALM 29.51S Montgomery LGT RAIN 54 53 97 W3 29.50R Poughkeepsie CLOUDY 53 52 96 N3 29.50R Albany LGT RAIN 53 50 89 N8 29.51R $$ NJZ001-105-106-008-010-013-015-019>022-104-261000- NEW JERSEY CITY SKY/WX TMP DP RH WIND PRES REMARKS Newark/Liberty CLOUDY 56 55 97 N6 29.51R Teterboro LGT RAIN 57 55 93 NW5 29.49R Caldwell LGT RAIN 58 55 90 NW3 29.52R FOG Somerville CLOUDY 58 57 97 N3 29.50R Linden LGT RAIN 58 56 94 CALM 29.51R Perth Amboy N/A 59 N/A N/A W7 N/A Sussex RAIN 55 55 100 CALM 29.52R FOG Andover N/A 54 53 97 CALM 29.53R Trenton CLOUDY 57 56 96 W5 29.52R Millville CLOUDY 60 60 100 W9 29.56R Atlantic City CLOUDY 61 58 90 W8 29.54R Wrightstown LGT RAIN 58 57 96 SW6 29.50R Toms River CLOUDY 57 56 96 W8 29.53R Belmar CLOUDY 57 56 96 SW8 29.53R $$ PAZ047>061-062-071-261000- EASTERN PENNSYLVANIA CITY SKY/WX TMP DP RH WIND PRES REMARKS Philadelphia MOCLDY 60 58 92 SW10 29.55R Allentown LGT RAIN 59 55 87 CALM 29.53R Scranton CLOUDY 57 57 100 W6 29.53S $$ CTZ002-004>006-009-010-012-RIZ004-006-007-MAZ004-011-015-261000- SOUTHERN NEW ENGLAND IN CT CITY SKY/WX TMP DP RH WIND PRES REMARKS Bradley INTL LGT RAIN 50 50 100 N7 29.51R Hartford LGT RAIN 51 50 96 N7 29.49S Danbury RAIN 51 51 100 VRB3 29.51R FOG Wtrbury/Oxford N/A 48 45 87 NE7 29.50R Bridgeport LGT RAIN 54 50 86 N10 29.48R FOG Meriden LGT RAIN 51 49 92 N5 29.49S New Haven LGT RAIN 52 50 93 N13 29.47R Chester LGT RAIN 50 50 100 N7 29.47F Groton LGT RAIN 52 50 93 N9 29.46S Wilimantic LGT RAIN 52 50 93 N3 29.49S IN RI CITY SKY/WX TMP DP RH WIND PRES REMARKS Providence CLOUDY 51 51 100 NE14 29.48S Block Island LGT RAIN 54 54 100 SE7 29.46F Westerly LGT RAIN 54 53 97 N6 29.46S IN MA CITY SKY/WX TMP DP RH WIND PRES REMARKS Boston CLOUDY 50 48 93 N13 29.49F Worcester HVY RAIN 46 44 93 NE8G22 29.48R FOG Westfield RAIN 50 50 100 N8 29.50S FOG Provincetown CLOUDY 52 52 100 NE3 N/A Nantucket CLOUDY N/A N/A N/A S12 29.50S $$ ANZ330-335-338-340-345-350-353-355-261000- COASTAL MARINE OBSERVATIONS STATION/POSITION TIME SKY/WX TEMP WIND PRES VSBY WAVE AIR SEA DIR/SP/G HT/PER (UTC) (F) (DEG/KT/KT) (MB) (MI) (FT/S) NY HARB ENTRANCE 0750 57 56 280/ 10/ 12 998.4 5/ 8 20 S FIRE ISLAND 0850 57 55 260/ 17/ 19 997.5 6/ 8 GREAT SOUTH BAY 0830 56 62 10/ 10/ 12 N/A 23 SSW MONTAUK P 0750 56 53 997.3 6/ 8 15 E BARNEGAT LI 0830 57 N/A 6/ 8 HUDSON CANYON 0750 55 53 200/ 12/ 14 999.2 7/ 8 KINGS POINT 0836 56 57 10/ 5/ 6 998.6 EXECUTION ROCKS 0845 56 N/A CENTRAL LI SOUND 0815 53 30/ 10/ 12 N/A 1/ 3 EASTERN LI SOUND NOT AVBL ROBBINS REEF 0836 58 320/ 5/ 7 999.4 $$ >>>>>>>>>>>>>>>>>>>>>>>>>>>> KEY <<<<<<<<<<<<<<<<<<<<<<<<<<< > < > SKY/WX - Sky Condition/Present Weather < > TMP - Temperature in Fahrenheit < > DP - Dew Point in Fahrenheit < > RH - Relative Humidity in Percent < > WIND - Direction (from) and Speed in MPH < > PRES - Mean Sea Level Pressure (inches of Hg) < > WCI - Wind Chill Index < > VSB - VISIBILITY IN MILES < > HX - HEAT INDEX < > TC - TEMPERATURE IN CELSIUS < > VRB - VARIABLE WIND DIRECTION < > < >>>>>>>>>>>>>>>>>>>>>>>>>>>> KEY <<<<<<<<<<<<<<<<<<<<<<<<<<<

USA.gov is the U.S. government's official web portal to all federal, state and local government web resources and services.